Regional Weather Roundup
Issued by NWS Charleston, WV

Home | Current Version | Previous Version | Graphics & Text | Print | Product List | Glossary On
Versions: 1 2 3 4 5 6 7 8 9 10 11 12 13 14 15 16 17 18 19 20 21 22 23 24 25 26 27 28 29 30 31 32 33 34 35 36 37 38 39 40 41 42 43 44 45 46 47 48
000
ASUS41 KRLX 250510
RWRRLX
West Virginia Regional Weather Roundup
National Weather Service Charleston WV
1200 AM EST SAT FEB 25 2017

Note: "fair" indicates few or no clouds below 12,000 feet with no
significant weather and/or obstructions to visibility.

WVZ003-250600-
Northern Panhandle of West Virginia

CITY           SKY/WX    TMP DP  RH WIND       PRES   REMARKS
WHEELING       CLOUDY    65  46  50 S12       29.57F
$$

WVZ009-250600-
Northwest West Virginia

CITY           SKY/WX    TMP DP  RH WIND       PRES   REMARKS
PARKERSBURG    CLOUDY    69  50  50 S12G22    29.61F
$$

WVZ006-250600-
Western West Virginia

CITY           SKY/WX    TMP DP  RH WIND       PRES   REMARKS
HUNTINGTON     PTCLDY    70  48  45 S10G21    29.58F
$$

WVZ015-250600-
West Central West Virginia

CITY           SKY/WX    TMP DP  RH WIND       PRES   REMARKS
CHARLESTON     PTCLDY    67  49  52 S8        29.62F
$$

WVZ022-031-250600-
North Central West Virginia

CITY           SKY/WX    TMP DP  RH WIND       PRES   REMARKS
CLARKSBURG     CLEAR     65  48  54 S12       29.65F
MORGANTOWN     PTCLDY    66  47  50 S12G18    29.65F
$$

WVZ025-035-042-045-250600-
Southern West Virginia

CITY           SKY/WX    TMP DP  RH WIND       PRES   REMARKS
BECKLEY        MOCLDY    59  48  67 S12       29.75S
LOGAN            N/A     66  50  55 S9G23     29.66F
BLUEFIELD      CLEAR     58  47  66 S8        29.79F
LEWISBURG      CLOUDY    55  48  76 CALM      29.78F
$$

WVZ047-250600-
Northern Mountains of West Virginia

CITY           SKY/WX    TMP DP  RH WIND       PRES   REMARKS
ELKINS         PTCLDY    63  47  55 S13       29.72F
$$

WVZ052-250600-
Eastern Panhandle of West Virginia

CITY           SKY/WX    TMP DP  RH WIND       PRES   REMARKS
MARTINSBURG    CLEAR     61  51  70 SE7       29.72F
PETERSBURG     CLOUDY    54  48  81 CALM      29.73S
$$




USA.gov is the U.S. government's official web portal to all federal, state and local government web resources and services.